This is the latest recevied weather packets stored in our database for station/object iz1wiy-2. If no packets are shown the sender has not sent any weather packets the latest 10 day(s).
| Time | Temp. | Humidity | Pressure | Rain* | Wind** | Luminosity | Snow |
|---|---|---|---|---|---|---|---|
| 1777890003 | 18.33° C | 66% | 1018.9 hPa | 0 mm | - | - | - |
| 1777889703 | 18.33° C | 66% | 1018.9 hPa | 0 mm | - | - | - |
| 1777889403 | 18.33° C | 65% | 1018.9 hPa | 0 mm | - | - | - |
| 1777889103 | 18.33° C | 66% | 1018.8 hPa | 0 mm | - | - | - |
| 1777888503 | 18.33° C | 65% | 1018.8 hPa | 0 mm | - | - | - |
| 1777887603 | 18.33° C | 64% | 1018.7 hPa | 0 mm | - | - | - |
| 1777887303 | 18.33° C | 64% | 1018.7 hPa | 0 mm | - | - | - |
| 1777887003 | 18.33° C | 65% | 1018.8 hPa | 0 mm | - | - | - |
| 1777886703 | 18.33° C | 66% | 1018.8 hPa | 0 mm | - | - | - |
| 1777886403 | 18.33° C | 65% | 1018.9 hPa | 0 mm | - | - | - |
| 1777886103 | 18.33° C | 65% | 1018.8 hPa | 0 mm | - | - | - |
| 1777885803 | 18.33° C | 65% | 1018.7 hPa | 0 mm | - | - | - |
| 1777885503 | 18.33° C | 65% | 1018.8 hPa | 0 mm | - | - | - |
| 1777885204 | 18.33° C | 66% | 1018.8 hPa | 0 mm | - | - | - |
| 1777884903 | 18.33° C | 66% | 1018.8 hPa | 0 mm | - | - | - |
| 1777884003 | 18.33° C | 66% | 1018.8 hPa | 0 mm | - | - | - |
| 1777883703 | 18.33° C | 64% | 1018.7 hPa | 0 mm | - | - | - |
| 1777883403 | 18.33° C | 63% | 1018.6 hPa | 0 mm | - | - | - |
| 1777883103 | 18.89° C | 59% | 1018.4 hPa | 0 mm | - | - | - |
| 1777882503 | 18.33° C | 61% | 1018.1 hPa | 0 mm | - | - | - |
| 1777882204 | 18.33° C | 61% | 1018.1 hPa | 0 mm | - | - | - |
| 1777881903 | 18.89° C | 57% | 1018.1 hPa | 0 mm | - | - | - |
| 1777881603 | 18.89° C | 57% | 1018 hPa | 0 mm | - | - | - |
| 1777881304 | 18.89° C | 57% | 1018 hPa | 0 mm | - | - | - |
| 1777880403 | 18.89° C | 58% | 1017.9 hPa | 0 mm | - | - | - |
* Rain latest hour (hover to see other rain measurements)
** Current wind speed in m/s (hover to see current wind gust speed)